www.pogodaiklimat.ru

Погода и климат >> Архив погоды >> Россия >> Забайкальский край >> Борзя


АРХИВ ПОГОДЫ в Борзе

Время (UTC), дата Ветер
(напр.,м/с)
 
Видим.   Явления Облачность Т
(С)
Тd
(С)
f
(%)
Тe
(С)
Тes
(С)
Комфортность P
(гПа)
Po
(гПа)
Тmin
(С)
Tmax
(С)
R
(мм)
R24
(мм)
S
(см)
09 10.07 СЗ 3 50 км 9/4 600 м
[Cb calv Ci sp]
+28.1 +11.1 35 +29 +31 жарко 1003.5 930.4
12 10.07 штиль 0 50 км 8/1 600 м
[Cb calv Ci sp]
+25.0 +13.6 49 +27 +27 жарко 1004.9 930.9 +29.7
15 10.07 В 2 н/о 4/0
[Ci sp]
+18.3 +13.0 71 +19 +19 1007.8 932.0
18 10.07 В 3 н/о 3/0
[Ci sp]
+14.7 +11.9 83 +14 +14 1009.3 932.5
21 10.07 СВ 2 20 км 3/0
[Ci sp]
+12.8 +11.1 89 +12 +12 1009.9 932.5
00 11.07 В 4 20 км 9/0
[Ci sp]
+21.6 +13.3 59 +24 +28 комфорт 1007.7 932.8 +12.5
03 11.07 СВ 1 20 км 9/3 1000 м
[Cb calv Ci sp]
+29.4 +9.7 29 +29 +40 жарко 1004.9 931.9
06 11.07 СВ 3 20 км 9/5 1000 м
[Cb calv Ac lent Ci sp]
+30.3 +10.5 29 +30 +34 жарко 1002.9 930.3
09 11.07 З 2 20 км 9/4 1000 м
[Cb calv Ci sp]
+30.9 +8.1 24 +30 +32 жарко 1001.3 928.9
12 11.07 В 2 20 км 8/3 1000 м
[Cb calv Ac lent Ci sp]
+26.1 +11.2 39 +27 +27 жарко 1003.4 929.8 +31.3
15 11.07 В 2 н/о 4/0
[Ci sp]
+18.3 +13.1 72 +19 +19 1006.0 930.4
18 11.07 СВ 3 н/о 4/0
[Ci sp]
+14.2 +10.9 81 +13 +13 1007.1 930.3
21 11.07 СВ 2 20 км 9/0
[Ac lent Ci sp]
+12.9 +11.0 88 +12 +12 1007.2 930.1
00 12.07 С 2 50 км 9/0
[Ci sp]
+22.5 +13.9 58 +26 +31 жарко 1005.5 930.9 +12.9
03 12.07 СЗ 2 20 км 9/3 1000 м
[Cu hum Ci sp]
+27.7 +13.0 40 +29 +39 жарко 1003.3 930.2
06 12.07 В 4
{10}
20 км гроза, ливневой дождь 9/6 600 м
[Cb cap Ci sp]
+24.1 +12.8 49 +26 +29 жарко 1003.7 929.6
09 12.07 СВ 2 20 км 9/4 600 м
[Cb calv Ci sp]
+28.0 +11.4 36 +29 +31 жарко 1001.4 928.4
12 12.07 С 2 20 км {гроза, ливн. осадки} 9/3 1000 м
[Cb calv Ac lent Ci sp]
+23.7 +14.3 56 +26 +26 жарко 1003.0 928.9 +29.8 0.5
15 12.07 С 1 н/о 9/0
[Ci sp]
+17.0 +13.6 80 +18 +18 1005.5 929.6
18 12.07 СВ 3 н/о 9/0
[Ci sp]
+14.3 +12.0 86 +13 +13 1006.6 929.9
21 12.07 В 2 20 км 9/3 1000 м
[Cb calv Ac lent Ci sp]
+14.4 +12.3 87 +14 +14 1006.7 930.0
00 13.07 СВ 2 20 км 9/0
[Ci sp]
+22.4 +14.0 59 +26 +31 жарко 1004.7 930.2 +13.7
03 13.07 СВ 1 20 км 9/0
[Ci sp]
+28.5 +10.0 32 +29 +44 жарко 1002.4 929.4
06 13.07 С 3 20 км 9/3 1000 м
[Cu med, cong Ci sp]
+31.3 +9.4 26 +31 +38 жарко 999.0 926.9
09 13.07 С 5
{10}
20 км 9/4 1000 м
[Cb calv Cs]
+28.5 +11.4 35 +29 +31 жарко 999.3 926.6
12 13.07 В 2
{13}
20 км 9/6 600 м
[Cb calv Ac lent Ci sp]
+23.3 +10.8 45 +25 +25 комфорт 1001.9 927.8 +31.4
15 13.07 С 1 н/о 9/6 600 м
[Cb calv Ac lent Ci sp]
+19.1 +11.8 63 +21 +21 комфорт 1003.7 928.4
18 13.07 СЗ 1 н/о 6/3 600 м
[Cb calv Ac lent Ci sp]
+15.4 +11.5 78 +16 +16 1004.0 927.8
21 13.07 З 1 50 км 5/0
[Ci fib]
+14.1 +11.4 84 +14 +15 1004.9 928.2
00 14.07 С 1 20 км 3/0
[Ci fib]
+20.5 +13.1 62 +24 +31 комфорт 1003.4 928.5 +13.8
03 14.07 С 3 20 км 8/3 1000 м
[Cb calv Ci fib]
+27.5 +12.2 39 +29 +37 жарко 1001.0 927.9
06 14.07 СЗ 5 20 км 9/5 1000 м
[Cb calv Ci fib]
+29.5 +7.6 25 +29 +32 жарко 999.6 927.0
09 14.07 С 3 50 км 8/3 1000 м
[Cu hum Ci fib]
+28.9 +8.4 28 +28 +31 жарко 998.6 926.0
12 14.07 С 2 50 км 9/0
[Ci sp]
+24.3 +8.9 38 +25 +25 комфорт 1001.1 927.2 +29.7
15 14.07 СВ 2 н/о 9/0
[Ac trans Ci sp]
+15.5 +9.6 68 +15 +15 1004.1 927.8
18 14.07 СВ 2 н/о зарница 9/3 600 м
[Cb cap Ac lent Ci sp]
+14.1 +9.7 75 +14 +14 1004.3 927.6
21 14.07 В 2 50 км 9/4 600 м
[Cb calv Ac lent Ci fib]
+15.5 +9.5 67 +15 +16 1004.4 928.1
00 15.07 В 3 20 км 9/8 600 м
[Cb calv Ac lent Ci sp]
+18.0 +12.9 72 +18 +19 1004.7 929.1 +13.4
03 15.07 В 3 20 км 9/6 600 м
[Cb calv Ac lent Ci sp]
+24.9 +11.6 43 +26 +30 жарко 1002.4 928.6
06 15.07 В 3 20 км 9/3 1000 м
[Cb calv Ac lent Ci sp]
+27.4 +11.5 37 +28 +33 жарко 1001.4 928.3
09 15.07 ЮВ 2 20 км 9/3 1000 м
[Cu hum Ac lent Ci sp]
+26.6 +12.0 40 +28 +30 жарко 1000.8 927.5
12 15.07 В 2 50 км 9/3 1000 м
[Cb calv Ac As Ci sp]
+23.6 +12.9 51 +26 +26 жарко 1002.7 928.6 +27.7
15 15.07 В 1 н/о 9/3 1000 м
[Cb calv Ac As Ci sp]
+19.5 +12.8 65 +22 +22 комфорт 1005.1 929.9
18 15.07 В 2 н/о 5/0
[Ci sp]
+15.2 +12.6 84 +15 +15 1006.1 929.7
21 15.07 СВ 2 50 км 3/0
[Ci sp]
+11.9 +9.6 86 +11 +11 1008.3 930.8
00 16.07 СВ 4 50 км 3/0
[Ci sp]
+19.8 +11.8 60 +21 +26 комфорт 1006.9 931.5 +11.8
03 16.07 В 2 50 км 4/3 1000 м
[Cu hum Ci sp]
+26.5 +7.7 30 +26 +37 жарко 1004.9 931.2
06 16.07 ЮВ 2 50 км 4/3 1000 м
[Cu hum Ci sp]
+28.8 +7.9 27 +28 +38 жарко 1003.2 930.2
09 16.07 С 1 50 км 5/3 1000 м
[Cu hum Ci sp]
+29.4 +8.2 27 +29 +33 жарко 1001.8 929.0
12 16.07 В 2 50 км 9/3 1000 м
[Cb calv Ci sp]
+24.3 +11.5 45 +26 +26 жарко 1004.0 929.9 +30.0
15 16.07 СВ 3 н/о 9/3 1000 м
[Cu hum Ci sp]
+18.4 +10.9 62 +19 +19 1006.6 930.9
18 16.07 СВ 3 н/о 4/0
[Ci sp]
+14.4 +10.3 76 +14 +14 1007.6 930.8
21 16.07 СВ 2 50 км 3/0
[Ci fib]
+13.6 +9.9 78 +13 +13 1008.3 931.2
00 17.07 СВ 3 50 км 1/0
[Ci sp]
+22.2 +11.7 51 +24 +30 комфорт 1006.2 931.5 +13.0
03 17.07 СВ 2 50 км 3/3 1000 м
[Cu hum Ci sp]
+29.0 +8.9 28 +29 +40 жарко 1003.9 930.9
06 17.07 В 2 50 км 8/3 1000 м
[Cu hum Ci sp]
+31.6 +8.4 24 +31 +39 жарко 1001.4 929.2

 

Местоположение метеостанции Борзя (Забайкальский край, Россия): широта 50.40 долгота 116.50 высота над уровнем моря 676 м.

В архиве по умолчанию представлена погода в Борзе за последнюю неделю. Архивные данные за месяц целиком и за предыдущие месяцы, начиная с января 2011 года, Вы можете получить, выбрав интересующий диапазон дат из раскрывающегося списка и нажав кнопку "Ввод!".


*Определитесь, кто Вы:
робот инопланетянин человек

Внимание! Время в таблицах - всемирное. Для получения местного времени необходимо прибавить поправку, которая равна 9 ч.

Смотрите также архив погоды в соседних городах и на ближайших метеорологических станциях:

Погода в Бырке (Забайкальский край, Россия) (52 км)
Погода в Соловьевске (Забайкальский край, Россия) (80 км)
Погода в Оловянной (Забайкальский край, Россия) (93 км)
Погода в Нижнем Цасучее (Забайкальский край, Россия) (99 км)
Погода в Забайкальске (Забайкальский край, Россия) (103 км)
Погода в Александровском Заводе (Забайкальский край, Россия) (114 км)
Погода в Балее (Забайкальский край, Россия) (129 км)
Погода в Кайластуе (Забайкальский край, Россия) (143 км)
Погода в Могойтуе (Забайкальский край, Россия) (148 км)
Погода в Шелопугино (Забайкальский край, Россия) (156 км)

Пояснения к столбцам:

Ветер - указаны скорость ветра в м/с - средняя за 10 мин, порывы в срок и между сроками (в фигурных скобках) и направление, откуда дует ветер: С - северный, СВ - северо-восточный, В - восточный, ЮВ - юго-восточный, Ю - южный, ЮЗ - юго-западный, З - западный, СЗ - северо-западный.
Видимость - горизонтальная дальность видимости в метрах или километрах. При видимости от 1 до 10 км при отсутствии осадков обычно наблюдается дымка, при ухудшении видимости до 1 км и менее - туман. В сухую погоду видимость может ухудшаться дымом, пылью или мглою.
Явления - указаны атмосферные явления, наблюдавшиеся в срок или в последний час перед сроком; фигурными скобками обозначены явления, наблюдавшиеся между сроками (за 1-3 часа до срока); квадратными скобками обозначены град или гололедные отложения с указанием их диаметра в мм.
Облачность - указаны через наклонную черту общая и нижняя облачность в баллах и высота нижней границы облаков в метрах; квадратными скобками обозначены формы облаков: Ci - перистые, Cs - перисто-слоистые, Cc - перисто-кучевые, Ac - высококучевые, As - высокослоистые, Sc - слоисто-кучевые, Ns - слоисто-дождевые, Cu - кучевые, Cb - кучево-дождевые. Подробнее классификацию облаков см. в Атласе облаков (PDF).
T - Температура воздуха - температура, измеренная на высоте 2 м над землей.
Td - Температура точки росы - температура, при понижении до которой содержащийся в воздухе водяной пар достигнет насыщения.
f - Относительная влажность воздуха - влажноcть воздуха, измеренная на высоте 2 м над землей.
Te - Эффективная температура - температура, которую ощущает одетый по сезону человек в тени. Характеристика душности погоды. При расчете учитывается влияние влажности воздуха и скорости ветра на теплоощущения человека.
Tes - Эффективная температура на солнце - температура, которую ощущает человек, с поправкой на солнечный нагрев. Характеристика знойности погоды. Зависит от высоты солнца над горизонтом, облачности и скорости ветра. Ночью, в пасмурную погоду, а также при ветре 12 м/с и более поправка равна нулю.
P - Атмосферное давление - приведенное к уровню моря атмосферное давление.
Po - Атмосферное давление - измеренное на уровне метеостанции атмосферное давление.
Tmin - Минимальная температура - минимум температуры воздуха на высоте 2 м над землей.
Tmax - Максимальная температура - максимум температуры воздуха на высоте 2 м над землей.
R - Количество осадков - Количество выпавших осадков за период времени, мм. При наведении курсора мыши на число - период времени, за который выпало указанное количество осадков.
R24 - Количество осадков - Количество выпавших осадков за 24 часа, мм.
S - Снежный покров - Высота снежного покрова, см. При наведении курсора мыши на число - состояние снежного покрова и степень покрытия местности в баллах.